FOF322 SPJC-SCEL

Flight info

Callsign FOF322
Flight time 3h 14m
Altitude 37000
Route ILMAR UL302 SIMOK SIMOK7B
Aircraft B738/M-SDE2E3FGHIRVWY/LB1

Departure

Time 2026-05-07 19:12
Airport Jorge Chávez International Airport (SPJC)

Arrival

Time 2026-05-07 22:26
Airport Comodoro Arturo Merino Benítez International Airport (SCEL)
Time Latitude Longitude Altitude Speed Heading
2026-05-07 18:40 -12.02240 -77.11025 102 ft 0 kts 79°
2026-05-07 19:03 -12.02240 -77.11028 101 ft 2 kts 79°
2026-05-07 19:03 -12.02245 -77.11046 101 ft 3 kts 71°
2026-05-07 19:03 -12.02252 -77.11065 100 ft 3 kts 59°
2026-05-07 19:03 -12.02264 -77.11081 100 ft 3 kts 36°
2026-05-07 19:04 -12.02279 -77.11088 99 ft 2 kts 350°
2026-05-07 19:04 -12.02285 -77.11087 101 ft 0 kts 338°
2026-05-07 19:06 -12.02279 -77.11089 99 ft 3 kts 338°
2026-05-07 19:07 -12.02224 -77.11104 100 ft 13 kts 356°
2026-05-07 19:07 -12.02121 -77.11128 98 ft 16 kts 334°
2026-05-07 19:07 -12.02017 -77.11179 98 ft 16 kts 334°
2026-05-07 19:07 -12.01934 -77.11249 94 ft 16 kts 298°
2026-05-07 19:08 -12.01884 -77.11345 93 ft 15 kts 298°
2026-05-07 19:08 -12.01803 -77.11411 89 ft 17 kts 335°
2026-05-07 19:08 -12.01683 -77.11470 86 ft 22 kts 334°
2026-05-07 19:08 -12.01529 -77.11547 84 ft 26 kts 334°
2026-05-07 19:09 -12.01367 -77.11627 82 ft 25 kts 334°
2026-05-07 19:09 -12.01216 -77.11701 73 ft 23 kts 334°
2026-05-07 19:09 -12.01073 -77.11772 63 ft 22 kts 334°
2026-05-07 19:09 -12.00934 -77.11840 64 ft 22 kts 334°
2026-05-07 19:10 -12.00799 -77.11906 64 ft 21 kts 334°
2026-05-07 19:10 -12.00695 -77.11970 63 ft 13 kts 306°
2026-05-07 19:10 -12.00693 -77.12055 56 ft 13 kts 243°
2026-05-07 19:10 -12.00764 -77.12104 56 ft 13 kts 188°
2026-05-07 19:11 -12.00853 -77.12092 56 ft 14 kts 155°
2026-05-07 19:11 -12.01106 -77.11968 61 ft 75 kts 154°
2026-05-07 19:11 -12.01778 -77.11632 83 ft 138 kts 153°
2026-05-07 19:11 -12.02791 -77.11139 302 ft 171 kts 156°
2026-05-07 19:12 -12.03860 -77.10611 1068 ft 176 kts 156°
2026-05-07 19:12 -12.04921 -77.10095 2009 ft 166 kts 155°
2026-05-07 19:12 -12.06001 -77.09561 2582 ft 185 kts 153°
2026-05-07 19:12 -12.07258 -77.08938 2863 ft 215 kts 153°
2026-05-07 19:13 -12.08686 -77.08230 3116 ft 237 kts 153°
2026-05-07 19:13 -12.10221 -77.07469 3447 ft 257 kts 153°
2026-05-07 19:13 -12.11862 -77.06658 4058 ft 265 kts 154°
2026-05-07 19:13 -12.13571 -77.06011 5062 ft 262 kts 172°
2026-05-07 19:14 -12.15377 -77.06193 5660 ft 265 kts 200°
2026-05-07 19:14 -12.16967 -77.07197 6032 ft 275 kts 220°
2026-05-07 19:14 -12.18343 -77.08558 6038 ft 276 kts 224°
2026-05-07 19:14 -12.19679 -77.09973 6050 ft 277 kts 225°
2026-05-07 19:15 -12.21021 -77.11396 6057 ft 279 kts 224°
2026-05-07 19:15 -12.22382 -77.12821 6052 ft 280 kts 223°
2026-05-07 19:15 -12.24007 -77.13864 6298 ft 280 kts 192°
2026-05-07 19:15 -12.25933 -77.13972 7131 ft 277 kts 175°
2026-05-07 19:16 -12.27855 -77.13767 7902 ft 280 kts 172°
2026-05-07 19:16 -12.29806 -77.13495 8645 ft 284 kts 172°
2026-05-07 19:16 -12.31770 -77.13211 9406 ft 287 kts 172°
2026-05-07 19:16 -12.33774 -77.12925 10084 ft 292 kts 172°
2026-05-07 19:17 -12.35829 -77.12638 10492 ft 309 kts 172°
2026-05-07 19:17 -12.38043 -77.12335 10640 ft 332 kts 172°
2026-05-07 19:17 -12.40400 -77.12017 10859 ft 349 kts 172°
2026-05-07 19:17 -12.42840 -77.11693 11354 ft 356 kts 172°
2026-05-07 19:18 -12.45301 -77.11370 11992 ft 359 kts 172°
2026-05-07 19:18 -12.47789 -77.11044 12557 ft 363 kts 172°
2026-05-07 19:18 -12.50306 -77.10716 13172 ft 366 kts 172°
2026-05-07 19:18 -12.52807 -77.10389 13737 ft 369 kts 172°
2026-05-07 19:19 -12.55360 -77.10057 14278 ft 371 kts 171°
2026-05-07 19:19 -12.57962 -77.09718 14773 ft 374 kts 171°
2026-05-07 19:19 -12.60521 -77.09384 15273 ft 377 kts 171°
2026-05-07 19:19 -12.63129 -77.09045 15807 ft 379 kts 171°
2026-05-07 19:20 -12.65761 -77.08702 16296 ft 382 kts 171°
2026-05-07 19:20 -12.68410 -77.08357 16791 ft 385 kts 171°
2026-05-07 19:20 -12.71079 -77.08009 17279 ft 388 kts 171°
2026-05-07 19:20 -12.73771 -77.07658 17774 ft 391 kts 171°
2026-05-07 19:21 -12.76475 -77.07305 18251 ft 394 kts 171°
2026-05-07 19:21 -12.79208 -77.06949 18645 ft 397 kts 171°
2026-05-07 19:21 -12.81949 -77.06591 19114 ft 398 kts 171°
2026-05-07 19:21 -12.84707 -77.06231 19542 ft 400 kts 171°
2026-05-07 19:22 -12.87471 -77.05870 19961 ft 402 kts 172°
2026-05-07 19:22 -12.90248 -77.05507 20397 ft 403 kts 172°
2026-05-07 19:22 -12.93039 -77.05144 20813 ft 405 kts 172°
2026-05-07 19:22 -12.95842 -77.04777 21214 ft 407 kts 172°
2026-05-07 19:23 -12.98658 -77.04409 21654 ft 408 kts 172°
2026-05-07 19:23 -13.01485 -77.04040 22019 ft 411 kts 172°
2026-05-07 19:23 -13.04331 -77.03668 22430 ft 413 kts 172°
2026-05-07 19:23 -13.07193 -77.03275 22770 ft 416 kts 170°
2026-05-07 19:24 -13.09981 -77.02579 23133 ft 418 kts 164°
2026-05-07 19:24 -13.12771 -77.01717 23532 ft 420 kts 163°
2026-05-07 19:24 -13.15572 -77.00831 23787 ft 423 kts 163°
2026-05-07 19:24 -13.18395 -76.99939 24048 ft 426 kts 164°
2026-05-07 19:25 -13.21241 -76.99047 24348 ft 428 kts 164°
2026-05-07 19:25 -13.24104 -76.98158 24591 ft 432 kts 164°
2026-05-07 19:25 -13.26987 -76.97269 24819 ft 435 kts 165°
2026-05-07 19:25 -13.29901 -76.96373 25100 ft 437 kts 165°
2026-05-07 19:26 -13.32822 -76.95476 25355 ft 440 kts 165°
2026-05-07 19:26 -13.35765 -76.94573 25596 ft 443 kts 165°
2026-05-07 19:26 -13.38731 -76.93661 25835 ft 446 kts 165°
2026-05-07 19:26 -13.41705 -76.92746 26081 ft 448 kts 165°
2026-05-07 19:27 -13.44706 -76.91822 26327 ft 451 kts 165°
2026-05-07 19:27 -13.47716 -76.90896 26568 ft 453 kts 165°
2026-05-07 19:27 -13.50742 -76.89964 26810 ft 455 kts 165°
2026-05-07 19:27 -13.53765 -76.88953 27039 ft 459 kts 160°
2026-05-07 19:28 -13.56685 -76.87574 27267 ft 463 kts 156°
2026-05-07 19:28 -13.59571 -76.86095 27500 ft 465 kts 155°
2026-05-07 19:28 -13.62465 -76.84582 27715 ft 468 kts 155°
2026-05-07 19:28 -13.65377 -76.83061 27928 ft 470 kts 155°
2026-05-07 19:29 -13.68300 -76.81544 28137 ft 472 kts 155°
2026-05-07 19:29 -13.71255 -76.80023 28350 ft 475 kts 156°
2026-05-07 19:29 -13.74214 -76.78510 28564 ft 477 kts 156°
2026-05-07 19:29 -13.77195 -76.76990 28762 ft 479 kts 156°
2026-05-07 19:30 -13.80189 -76.75466 28946 ft 481 kts 156°
2026-05-07 19:30 -13.83161 -76.73953 29146 ft 483 kts 156°
2026-05-07 19:30 -13.86181 -76.72415 29335 ft 485 kts 156°
2026-05-07 19:30 -13.89212 -76.70870 29541 ft 487 kts 156°
2026-05-07 19:31 -13.92258 -76.69316 29720 ft 489 kts 156°
2026-05-07 19:31 -13.95351 -76.67739 29904 ft 491 kts 156°
2026-05-07 19:31 -13.98380 -76.66192 30056 ft 493 kts 156°
2026-05-07 19:31 -14.01460 -76.64619 30250 ft 494 kts 156°
2026-05-07 19:32 -14.04533 -76.63048 30537 ft 492 kts 156°
2026-05-07 19:32 -14.07590 -76.61486 30863 ft 489 kts 156°
2026-05-07 19:32 -14.10639 -76.59927 31152 ft 488 kts 156°
2026-05-07 19:32 -14.13688 -76.58368 31369 ft 489 kts 156°
2026-05-07 19:33 -14.16729 -76.56813 31616 ft 489 kts 156°
2026-05-07 19:33 -14.19775 -76.55255 31901 ft 487 kts 156°
2026-05-07 19:33 -14.22813 -76.53700 32211 ft 486 kts 156°
2026-05-07 19:33 -14.25835 -76.52156 32515 ft 485 kts 157°
2026-05-07 19:34 -14.28936 -76.50816 32749 ft 481 kts 166°
2026-05-07 19:34 -14.32141 -76.49878 33030 ft 478 kts 168°
2026-05-07 19:34 -14.35362 -76.49022 33326 ft 477 kts 169°
2026-05-07 19:34 -14.38576 -76.48192 33594 ft 477 kts 169°
2026-05-07 19:35 -14.41795 -76.47360 33864 ft 476 kts 169°
2026-05-07 19:35 -14.45007 -76.46518 34100 ft 476 kts 169°
2026-05-07 19:35 -14.48211 -76.45665 34304 ft 476 kts 169°
2026-05-07 19:35 -14.51424 -76.44800 34477 ft 477 kts 168°
2026-05-07 19:36 -14.54641 -76.43928 34657 ft 478 kts 168°
2026-05-07 19:36 -14.57861 -76.43051 34862 ft 478 kts 168°
2026-05-07 19:36 -14.61076 -76.42173 35079 ft 478 kts 168°
2026-05-07 19:36 -14.64288 -76.41296 35254 ft 479 kts 168°
2026-05-07 19:37 -14.67511 -76.40416 35422 ft 479 kts 168°
2026-05-07 19:37 -14.70695 -76.39547 35606 ft 479 kts 168°
2026-05-07 19:37 -14.73918 -76.38668 35802 ft 480 kts 168°
2026-05-07 19:37 -14.77153 -76.37785 35977 ft 480 kts 168°
2026-05-07 19:38 -14.80381 -76.36904 36149 ft 480 kts 168°
2026-05-07 19:38 -14.83619 -76.36020 36337 ft 481 kts 168°
2026-05-07 19:38 -14.86851 -76.35137 36510 ft 481 kts 168°
2026-05-07 19:38 -14.90089 -76.34253 36674 ft 482 kts 168°
2026-05-07 19:39 -14.93328 -76.33368 36826 ft 482 kts 168°
2026-05-07 19:39 -14.96572 -76.32481 36959 ft 483 kts 168°
2026-05-07 19:39 -15.01987 -76.31001 36966 ft 485 kts 168°
2026-05-07 19:40 -15.09590 -76.28919 36965 ft 481 kts 168°
2026-05-07 19:40 -15.16043 -76.27151 36968 ft 479 kts 168°
2026-05-07 19:41 -15.21385 -76.25687 36964 ft 477 kts 168°
2026-05-07 19:41 -15.27797 -76.23930 36969 ft 476 kts 168°
2026-05-07 19:42 -15.34209 -76.22172 36973 ft 477 kts 168°
2026-05-07 19:42 -15.40626 -76.20411 36976 ft 478 kts 168°
2026-05-07 19:43 -15.47065 -76.18643 36981 ft 480 kts 168°
2026-05-07 19:43 -15.53538 -76.16864 36980 ft 482 kts 168°
2026-05-07 19:44 -15.60030 -76.15078 36979 ft 484 kts 168°
2026-05-07 19:44 -15.66542 -76.13286 36975 ft 485 kts 168°
2026-05-07 19:45 -15.73078 -76.11486 36972 ft 486 kts 168°
2026-05-07 19:45 -15.79678 -76.09667 36978 ft 487 kts 168°
2026-05-07 19:46 -15.86226 -76.07861 36982 ft 487 kts 168°
2026-05-07 19:46 -15.92730 -76.06066 36982 ft 486 kts 168°
2026-05-07 19:47 -15.99267 -76.04261 36981 ft 486 kts 168°
2026-05-07 19:47 -16.05790 -76.02458 36976 ft 485 kts 168°
2026-05-07 19:48 -16.12301 -76.00658 36973 ft 484 kts 168°
2026-05-07 19:48 -16.18799 -75.98860 36978 ft 483 kts 168°
2026-05-07 19:49 -16.25292 -75.97062 36981 ft 482 kts 168°
2026-05-07 19:49 -16.31770 -75.95267 36976 ft 482 kts 168°
2026-05-07 19:50 -16.38262 -75.93468 36982 ft 482 kts 168°
2026-05-07 19:50 -16.44744 -75.91669 36983 ft 482 kts 168°
2026-05-07 19:51 -16.51232 -75.89868 36987 ft 482 kts 169°
2026-05-07 19:51 -16.57678 -75.88077 36988 ft 482 kts 169°
2026-05-07 19:52 -16.64168 -75.86273 36986 ft 483 kts 169°
2026-05-07 19:52 -16.70662 -75.84466 36990 ft 483 kts 169°
2026-05-07 19:53 -16.77166 -75.82655 36987 ft 484 kts 169°
2026-05-07 19:53 -16.83678 -75.80841 36988 ft 484 kts 169°
2026-05-07 19:54 -16.90208 -75.79020 36993 ft 485 kts 169°
2026-05-07 19:54 -16.96724 -75.77202 36994 ft 485 kts 169°
2026-05-07 19:55 -17.03248 -75.75381 36992 ft 485 kts 169°
2026-05-07 19:55 -17.09775 -75.73557 36991 ft 485 kts 169°
2026-05-07 19:56 -17.16253 -75.71745 36989 ft 485 kts 169°
2026-05-07 19:56 -17.22780 -75.69919 36992 ft 485 kts 169°
2026-05-07 19:57 -17.29297 -75.68094 36991 ft 485 kts 169°
2026-05-07 19:57 -17.35813 -75.66268 36992 ft 485 kts 169°
2026-05-07 19:58 -17.42328 -75.64441 36993 ft 484 kts 169°
2026-05-07 19:58 -17.48834 -75.62615 36992 ft 484 kts 169°
2026-05-07 19:59 -17.55342 -75.60787 36995 ft 484 kts 169°
2026-05-07 19:59 -17.61851 -75.58958 36994 ft 484 kts 169°
2026-05-07 20:00 -17.68359 -75.57127 36994 ft 484 kts 169°
2026-05-07 20:00 -17.74823 -75.55308 36995 ft 484 kts 169°
2026-05-07 20:01 -17.81377 -75.53462 37000 ft 485 kts 169°
2026-05-07 20:01 -17.87855 -75.51635 37002 ft 485 kts 169°
2026-05-07 20:02 -17.94423 -75.49782 37010 ft 486 kts 169°
2026-05-07 20:02 -18.00967 -75.47935 37004 ft 487 kts 169°
2026-05-07 20:03 -18.07477 -75.46095 36999 ft 488 kts 169°
2026-05-07 20:03 -18.14039 -75.44239 37001 ft 489 kts 169°
2026-05-07 20:04 -18.20614 -75.42378 37003 ft 489 kts 169°
2026-05-07 20:04 -18.27190 -75.40515 37004 ft 490 kts 169°
2026-05-07 20:05 -18.33766 -75.38651 37004 ft 490 kts 169°
2026-05-07 20:05 -18.40335 -75.36739 37009 ft 490 kts 168°
2026-05-07 20:06 -18.46884 -75.34759 37006 ft 490 kts 168°
2026-05-07 20:06 -18.53430 -75.32775 37004 ft 489 kts 168°
2026-05-07 20:07 -18.59974 -75.30801 37007 ft 488 kts 168°
2026-05-07 20:07 -18.66503 -75.28836 37009 ft 487 kts 168°
2026-05-07 20:08 -18.73024 -75.26872 37009 ft 487 kts 168°
2026-05-07 20:08 -18.79540 -75.24909 37007 ft 486 kts 168°
2026-05-07 20:09 -18.86040 -75.22948 37007 ft 486 kts 168°
2026-05-07 20:10 -18.95743 -75.20018 37012 ft 485 kts 168°
2026-05-07 20:10 -19.02224 -75.18060 37013 ft 484 kts 169°
2026-05-07 20:11 -19.08707 -75.16098 37012 ft 484 kts 169°
2026-05-07 20:11 -19.15182 -75.14138 37014 ft 484 kts 169°
2026-05-07 20:12 -19.21658 -75.12176 37014 ft 484 kts 169°
2026-05-07 20:12 -19.28129 -75.10214 37014 ft 484 kts 169°
2026-05-07 20:13 -19.34611 -75.08247 37016 ft 484 kts 169°
2026-05-07 20:13 -19.41082 -75.06281 37016 ft 484 kts 169°
2026-05-07 20:14 -19.47567 -75.04309 37019 ft 484 kts 169°
2026-05-07 20:14 -19.54039 -75.02340 37015 ft 484 kts 169°
2026-05-07 20:15 -19.60521 -75.00366 37020 ft 484 kts 169°
2026-05-07 20:15 -19.66957 -74.98405 37020 ft 484 kts 169°
2026-05-07 20:16 -19.73436 -74.96429 37019 ft 484 kts 169°
2026-05-07 20:16 -19.79909 -74.94453 37028 ft 484 kts 169°
2026-05-07 20:17 -19.86382 -74.92475 37023 ft 484 kts 169°
2026-05-07 20:17 -19.92847 -74.90498 37030 ft 484 kts 169°
2026-05-07 20:18 -19.99320 -74.88517 37026 ft 483 kts 169°
2026-05-07 20:18 -20.05791 -74.86534 37026 ft 483 kts 169°
2026-05-07 20:19 -20.12244 -74.84556 37031 ft 483 kts 169°
2026-05-07 20:19 -20.18697 -74.82576 37031 ft 482 kts 169°
2026-05-07 20:20 -20.25147 -74.80595 37031 ft 482 kts 169°
2026-05-07 20:20 -20.31587 -74.78615 37030 ft 482 kts 169°
2026-05-07 20:21 -20.38027 -74.76634 37035 ft 481 kts 169°
2026-05-07 20:21 -20.44458 -74.74654 37034 ft 481 kts 169°
2026-05-07 20:22 -20.50888 -74.72672 37033 ft 481 kts 169°
2026-05-07 20:22 -20.57314 -74.70690 37032 ft 480 kts 169°
2026-05-07 20:23 -20.63733 -74.68708 37032 ft 480 kts 169°
2026-05-07 20:23 -20.69067 -74.67060 37032 ft 480 kts 169°
2026-05-07 20:24 -20.76526 -74.64754 37034 ft 479 kts 169°
2026-05-07 20:24 -20.82929 -74.62772 37038 ft 479 kts 169°
2026-05-07 20:25 -20.88252 -74.61123 37038 ft 479 kts 169°
2026-05-07 20:25 -20.94650 -74.59139 37035 ft 478 kts 169°
2026-05-07 20:26 -21.01040 -74.57156 37038 ft 478 kts 169°
2026-05-07 20:26 -21.07422 -74.55173 37046 ft 477 kts 169°
2026-05-07 20:27 -21.13798 -74.53190 37045 ft 477 kts 169°
2026-05-07 20:27 -21.20159 -74.51212 37038 ft 476 kts 169°
2026-05-07 20:28 -21.26524 -74.49231 37047 ft 476 kts 169°
2026-05-07 20:28 -21.32878 -74.47251 37043 ft 475 kts 169°
2026-05-07 20:29 -21.39225 -74.45272 37044 ft 475 kts 169°
2026-05-07 20:29 -21.45565 -74.43292 37039 ft 474 kts 169°
2026-05-07 20:30 -21.51903 -74.41312 37043 ft 474 kts 169°
2026-05-07 20:30 -21.58234 -74.39332 37039 ft 473 kts 169°
2026-05-07 20:31 -21.64552 -74.37354 37047 ft 473 kts 169°
2026-05-07 20:31 -21.70866 -74.35376 37048 ft 472 kts 169°
2026-05-07 20:32 -21.77168 -74.33399 37042 ft 472 kts 169°
2026-05-07 20:32 -21.83463 -74.31423 37048 ft 471 kts 169°
2026-05-07 20:33 -21.89753 -74.29447 37047 ft 470 kts 169°
2026-05-07 20:33 -21.96029 -74.27472 37048 ft 469 kts 169°
2026-05-07 20:34 -22.02287 -74.25503 37049 ft 468 kts 169°
2026-05-07 20:34 -22.08501 -74.23545 37048 ft 467 kts 169°
2026-05-07 20:35 -22.14775 -74.21566 37048 ft 466 kts 169°
2026-05-07 20:35 -22.20957 -74.19615 37048 ft 465 kts 169°
2026-05-07 20:36 -22.27168 -74.17653 37053 ft 464 kts 169°
2026-05-07 20:36 -22.33366 -74.15693 37053 ft 463 kts 169°
2026-05-07 20:37 -22.39545 -74.13737 37055 ft 462 kts 168°
2026-05-07 20:37 -22.45716 -74.11782 37059 ft 461 kts 168°
2026-05-07 20:38 -22.51876 -74.09829 37059 ft 460 kts 168°
2026-05-07 20:38 -22.58017 -74.07879 37059 ft 460 kts 168°
2026-05-07 20:39 -22.64155 -74.05930 37061 ft 459 kts 168°
2026-05-07 20:39 -22.70271 -74.03985 37059 ft 458 kts 168°
2026-05-07 20:40 -22.76375 -74.02042 37060 ft 457 kts 167°
2026-05-07 20:40 -22.82474 -74.00099 37061 ft 456 kts 167°
2026-05-07 20:41 -22.88558 -73.98159 37063 ft 455 kts 167°
2026-05-07 20:41 -22.94593 -73.96232 37063 ft 455 kts 167°
2026-05-07 20:42 -23.00655 -73.94295 37061 ft 454 kts 167°
2026-05-07 20:42 -23.06706 -73.92360 37060 ft 453 kts 167°
2026-05-07 20:43 -23.12745 -73.90428 37061 ft 452 kts 167°
2026-05-07 20:43 -23.18767 -73.88498 37061 ft 450 kts 167°
2026-05-07 20:44 -23.24768 -73.86574 37061 ft 449 kts 167°
2026-05-07 20:44 -23.30757 -73.84651 37062 ft 448 kts 167°
2026-05-07 20:45 -23.36715 -73.82737 37062 ft 446 kts 166°
2026-05-07 20:45 -23.42661 -73.80826 37068 ft 444 kts 166°
2026-05-07 20:46 -23.48557 -73.78927 37066 ft 443 kts 166°
2026-05-07 20:46 -23.54459 -73.77025 37071 ft 441 kts 166°
2026-05-07 20:47 -23.60340 -73.75129 37059 ft 440 kts 166°
2026-05-07 20:47 -23.66201 -73.73236 37067 ft 439 kts 166°
2026-05-07 20:48 -23.72048 -73.71348 37069 ft 438 kts 166°
2026-05-07 20:48 -23.77900 -73.69454 37074 ft 438 kts 166°
2026-05-07 20:49 -23.83746 -73.67562 37072 ft 438 kts 166°
2026-05-07 20:49 -23.89555 -73.65679 37075 ft 438 kts 166°
2026-05-07 20:50 -23.95408 -73.63782 37068 ft 439 kts 166°
2026-05-07 20:50 -24.01267 -73.61879 37069 ft 439 kts 166°
2026-05-07 20:51 -24.07133 -73.59976 37075 ft 440 kts 166°
2026-05-07 20:51 -24.13003 -73.58072 37073 ft 440 kts 166°
2026-05-07 20:52 -24.18890 -73.56161 37069 ft 441 kts 166°
2026-05-07 20:52 -24.24777 -73.54245 37073 ft 441 kts 166°
2026-05-07 20:53 -24.30675 -73.52323 37074 ft 442 kts 166°
2026-05-07 20:53 -24.36569 -73.50402 37074 ft 441 kts 166°
2026-05-07 20:54 -24.42454 -73.48483 37068 ft 439 kts 166°
2026-05-07 20:54 -24.48254 -73.46587 37070 ft 437 kts 166°
2026-05-07 20:55 -24.54069 -73.44687 37072 ft 435 kts 166°
2026-05-07 20:55 -24.59855 -73.42796 37075 ft 433 kts 166°
2026-05-07 20:56 -24.65615 -73.40909 37075 ft 432 kts 166°
2026-05-07 20:56 -24.71377 -73.39021 37082 ft 433 kts 166°
2026-05-07 20:57 -24.77185 -73.37115 37248 ft 435 kts 166°
2026-05-07 20:57 -24.80075 -73.36165 37530 ft 433 kts 166°
2026-05-07 20:57 -24.82968 -73.35214 37724 ft 433 kts 166°
2026-05-07 20:57 -24.85852 -73.34266 37966 ft 432 kts 166°
2026-05-07 20:58 -24.88737 -73.33317 38127 ft 433 kts 166°
2026-05-07 20:58 -24.91625 -73.32366 38331 ft 432 kts 166°
2026-05-07 20:58 -24.94509 -73.31417 38504 ft 433 kts 166°
2026-05-07 20:58 -24.97352 -73.30480 38727 ft 431 kts 166°
2026-05-07 20:59 -25.00223 -73.29533 38885 ft 431 kts 166°
2026-05-07 20:59 -25.03095 -73.28587 38993 ft 429 kts 166°
2026-05-07 20:59 -25.05956 -73.27644 39064 ft 429 kts 166°
2026-05-07 21:00 -25.11699 -73.25750 39090 ft 433 kts 166°
2026-05-07 21:00 -25.17492 -73.23837 39093 ft 436 kts 166°
2026-05-07 21:01 -25.23317 -73.21911 39085 ft 436 kts 166°
2026-05-07 21:01 -25.29091 -73.19998 39080 ft 431 kts 166°
2026-05-07 21:02 -25.34794 -73.18107 39080 ft 424 kts 165°
2026-05-07 21:02 -25.40416 -73.16241 39081 ft 419 kts 165°
2026-05-07 21:03 -25.45979 -73.14395 39084 ft 416 kts 165°
2026-05-07 21:03 -25.51531 -73.12551 39094 ft 418 kts 165°
2026-05-07 21:04 -25.57134 -73.10688 39096 ft 423 kts 165°
2026-05-07 21:04 -25.62805 -73.08800 39098 ft 427 kts 165°
2026-05-07 21:05 -25.68501 -73.06901 39090 ft 429 kts 165°
2026-05-07 21:05 -25.74191 -73.05002 39075 ft 423 kts 165°
2026-05-07 21:06 -25.79771 -73.03136 39085 ft 416 kts 165°
2026-05-07 21:06 -25.85314 -73.01283 39092 ft 415 kts 165°
2026-05-07 21:07 -25.90836 -72.99436 39094 ft 414 kts 165°
2026-05-07 21:07 -25.96356 -72.97588 39089 ft 414 kts 165°
2026-05-07 21:08 -26.01872 -72.95738 39096 ft 414 kts 165°
2026-05-07 21:08 -26.07398 -72.93884 39095 ft 415 kts 165°
2026-05-07 21:09 -26.11993 -72.92340 39097 ft 416 kts 165°
2026-05-07 21:09 -26.18437 -72.90173 39095 ft 416 kts 165°
2026-05-07 21:10 -26.23989 -72.88304 39098 ft 417 kts 165°
2026-05-07 21:10 -26.29542 -72.86433 39096 ft 417 kts 165°
2026-05-07 21:11 -26.34163 -72.84874 39098 ft 417 kts 165°
2026-05-07 21:11 -26.42495 -72.82060 39093 ft 417 kts 165°
2026-05-07 21:12 -26.48046 -72.80184 39095 ft 416 kts 165°
2026-05-07 21:12 -26.53581 -72.78310 39089 ft 415 kts 165°
2026-05-07 21:13 -26.59113 -72.76436 39096 ft 414 kts 165°
2026-05-07 21:13 -26.64627 -72.74566 39096 ft 413 kts 165°
2026-05-07 21:14 -26.70133 -72.72697 39094 ft 412 kts 166°
2026-05-07 21:14 -26.75612 -72.70835 39092 ft 412 kts 166°
2026-05-07 21:15 -26.81089 -72.68972 39097 ft 411 kts 166°
2026-05-07 21:15 -26.86551 -72.67112 39095 ft 410 kts 166°
2026-05-07 21:16 -26.92010 -72.65252 39095 ft 409 kts 166°
2026-05-07 21:16 -26.97457 -72.63393 39093 ft 409 kts 166°
2026-05-07 21:17 -27.02898 -72.61535 39089 ft 409 kts 166°
2026-05-07 21:17 -27.08337 -72.59675 39092 ft 409 kts 166°
2026-05-07 21:18 -27.13775 -72.57814 39094 ft 408 kts 166°
2026-05-07 21:18 -27.19212 -72.55952 39096 ft 408 kts 166°
2026-05-07 21:19 -27.24645 -72.54088 39090 ft 408 kts 166°
2026-05-07 21:19 -27.30080 -72.52223 39093 ft 408 kts 166°
2026-05-07 21:20 -27.35512 -72.50356 39087 ft 408 kts 166°
2026-05-07 21:20 -27.40945 -72.48487 39090 ft 408 kts 166°
2026-05-07 21:21 -27.46372 -72.46617 39091 ft 408 kts 166°
2026-05-07 21:21 -27.51792 -72.44749 39089 ft 407 kts 166°
2026-05-07 21:22 -27.57209 -72.42885 39088 ft 407 kts 166°
2026-05-07 21:22 -27.62619 -72.41026 39088 ft 406 kts 166°
2026-05-07 21:23 -27.67981 -72.39181 39088 ft 405 kts 166°
2026-05-07 21:23 -27.73408 -72.37311 39086 ft 405 kts 166°
2026-05-07 21:24 -27.78792 -72.35454 39087 ft 404 kts 166°
2026-05-07 21:24 -27.84169 -72.33596 39083 ft 404 kts 166°
2026-05-07 21:25 -27.89540 -72.31740 39086 ft 403 kts 166°
2026-05-07 21:25 -27.94900 -72.29885 39087 ft 403 kts 166°
2026-05-07 21:26 -28.00260 -72.28028 39084 ft 403 kts 166°
2026-05-07 21:26 -28.05617 -72.26170 39086 ft 402 kts 167°
2026-05-07 21:27 -28.10976 -72.24310 39085 ft 402 kts 167°
2026-05-07 21:27 -28.16324 -72.22451 39084 ft 402 kts 167°
2026-05-07 21:28 -28.21676 -72.20589 39083 ft 402 kts 167°
2026-05-07 21:28 -28.27030 -72.18724 39089 ft 402 kts 167°
2026-05-07 21:29 -28.32413 -72.16847 39091 ft 402 kts 167°
2026-05-07 21:29 -28.37765 -72.14979 39092 ft 402 kts 167°
2026-05-07 21:30 -28.43103 -72.13114 39081 ft 402 kts 167°
2026-05-07 21:30 -28.48447 -72.11245 39083 ft 401 kts 167°
2026-05-07 21:31 -28.53814 -72.09363 39084 ft 401 kts 167°
2026-05-07 21:31 -28.59142 -72.07489 39085 ft 400 kts 167°
2026-05-07 21:32 -28.64462 -72.05614 39086 ft 400 kts 167°
2026-05-07 21:32 -28.69740 -72.03753 39083 ft 399 kts 167°
2026-05-07 21:33 -28.75083 -72.01867 39085 ft 399 kts 167°
2026-05-07 21:33 -28.80384 -71.99994 39086 ft 399 kts 167°
2026-05-07 21:34 -28.85640 -71.98134 39090 ft 398 kts 167°
2026-05-07 21:34 -28.90933 -71.96260 39091 ft 398 kts 167°
2026-05-07 21:35 -28.96217 -71.94387 39085 ft 397 kts 167°
2026-05-07 21:35 -29.01495 -71.92514 39086 ft 397 kts 167°
2026-05-07 21:36 -29.06767 -71.90641 39088 ft 397 kts 167°
2026-05-07 21:36 -29.12039 -71.88767 39089 ft 397 kts 168°
2026-05-07 21:37 -29.17309 -71.86890 39088 ft 396 kts 168°
2026-05-07 21:37 -29.22571 -71.85014 39085 ft 396 kts 168°
2026-05-07 21:38 -29.27830 -71.83138 39089 ft 396 kts 168°
2026-05-07 21:38 -29.33090 -71.81259 39091 ft 396 kts 168°
2026-05-07 21:39 -29.38348 -71.79379 39089 ft 396 kts 168°
2026-05-07 21:39 -29.43576 -71.77507 39089 ft 396 kts 168°
2026-05-07 21:40 -29.48834 -71.75625 39089 ft 396 kts 168°
2026-05-07 21:40 -29.54090 -71.73755 39088 ft 396 kts 168°
2026-05-07 21:41 -29.59358 -71.71883 39089 ft 396 kts 168°
2026-05-07 21:41 -29.64623 -71.70008 39088 ft 396 kts 168°
2026-05-07 21:42 -29.69892 -71.68129 39088 ft 396 kts 168°
2026-05-07 21:42 -29.75157 -71.66248 39086 ft 397 kts 168°
2026-05-07 21:43 -29.80434 -71.64361 39084 ft 397 kts 169°
2026-05-07 21:43 -29.85710 -71.62473 39082 ft 397 kts 169°
2026-05-07 21:44 -29.90949 -71.60595 39078 ft 397 kts 169°
2026-05-07 21:44 -29.96224 -71.58703 39078 ft 397 kts 169°
2026-05-07 21:45 -30.01501 -71.56807 39076 ft 397 kts 169°
2026-05-07 21:45 -30.06808 -71.54899 39075 ft 397 kts 169°
2026-05-07 21:46 -30.12082 -71.53000 39079 ft 397 kts 169°
2026-05-07 21:46 -30.17356 -71.51099 39085 ft 397 kts 169°
2026-05-07 21:47 -30.22623 -71.49199 39078 ft 397 kts 169°
2026-05-07 21:47 -30.27871 -71.47205 39078 ft 400 kts 164°
2026-05-07 21:48 -30.32064 -71.44721 39082 ft 405 kts 159°
2026-05-07 21:48 -30.37287 -71.41448 39084 ft 404 kts 159°
2026-05-07 21:49 -30.42272 -71.38343 39080 ft 403 kts 160°
2026-05-07 21:49 -30.47212 -71.35280 39079 ft 402 kts 160°
2026-05-07 21:50 -30.52140 -71.32226 39088 ft 401 kts 160°
2026-05-07 21:50 -30.57057 -71.29176 39094 ft 401 kts 160°
2026-05-07 21:51 -30.62016 -71.26095 39093 ft 402 kts 160°
2026-05-07 21:51 -30.66950 -71.23026 39091 ft 402 kts 160°
2026-05-07 21:52 -30.71888 -71.19950 39093 ft 403 kts 160°
2026-05-07 21:52 -30.76837 -71.16864 39092 ft 403 kts 160°
2026-05-07 21:53 -30.81777 -71.13780 39098 ft 403 kts 160°
2026-05-07 21:53 -30.86726 -71.10688 39092 ft 404 kts 160°
2026-05-07 21:54 -30.91647 -71.07609 39106 ft 404 kts 160°
2026-05-07 21:54 -30.96608 -71.04502 39113 ft 404 kts 160°
2026-05-07 21:55 -31.01554 -71.01396 39117 ft 403 kts 160°
2026-05-07 21:55 -31.06493 -70.98293 39127 ft 403 kts 160°
2026-05-07 21:56 -31.11434 -70.95186 39127 ft 403 kts 160°
2026-05-07 21:56 -31.16363 -70.92083 39145 ft 402 kts 160°
2026-05-07 21:57 -31.21293 -70.88975 39172 ft 402 kts 160°
2026-05-07 21:57 -31.26192 -70.85883 39144 ft 398 kts 160°
2026-05-07 21:58 -31.31104 -70.82977 38713 ft 389 kts 169°
2026-05-07 21:58 -31.33674 -70.82152 38158 ft 378 kts 176°
2026-05-07 21:58 -31.36246 -70.81686 37623 ft 371 kts 181°
2026-05-07 21:59 -31.38797 -70.81647 37052 ft 363 kts 188°
2026-05-07 21:59 -31.41308 -70.81881 36496 ft 362 kts 189°
2026-05-07 21:59 -31.43818 -70.82146 35884 ft 362 kts 189°
2026-05-07 21:59 -31.46331 -70.82416 35249 ft 362 kts 189°
2026-05-07 22:00 -31.48838 -70.82679 34577 ft 364 kts 189°
2026-05-07 22:00 -31.51348 -70.82934 34120 ft 360 kts 189°
2026-05-07 22:00 -31.53836 -70.83184 33610 ft 357 kts 189°
2026-05-07 22:00 -31.56302 -70.83429 33131 ft 355 kts 189°
2026-05-07 22:01 -31.58753 -70.83667 32622 ft 352 kts 191°
2026-05-07 22:01 -31.61171 -70.83903 32211 ft 346 kts 189°
2026-05-07 22:01 -31.63559 -70.84141 31756 ft 343 kts 190°
2026-05-07 22:01 -31.65945 -70.84381 31349 ft 348 kts 190°
2026-05-07 22:02 -31.68393 -70.84628 30877 ft 357 kts 189°
2026-05-07 22:02 -31.70851 -70.84872 30394 ft 358 kts 189°
2026-05-07 22:02 -31.73328 -70.85114 29875 ft 355 kts 189°
2026-05-07 22:02 -31.75784 -70.85320 29349 ft 353 kts 187°
2026-05-07 22:03 -31.78227 -70.85317 28903 ft 351 kts 185°
2026-05-07 22:03 -31.80668 -70.85219 28403 ft 350 kts 184°
2026-05-07 22:03 -31.83091 -70.85098 27936 ft 347 kts 184°
2026-05-07 22:03 -31.85499 -70.84981 27433 ft 345 kts 185°
2026-05-07 22:04 -31.87880 -70.84874 27012 ft 341 kts 185°
2026-05-07 22:04 -31.90249 -70.84776 26529 ft 339 kts 186°
2026-05-07 22:04 -31.92591 -70.84685 26081 ft 335 kts 186°
2026-05-07 22:04 -31.94922 -70.84599 25620 ft 335 kts 186°
2026-05-07 22:05 -31.97253 -70.84516 25147 ft 335 kts 186°
2026-05-07 22:05 -31.99578 -70.84433 24702 ft 333 kts 186°
2026-05-07 22:05 -32.01894 -70.84352 24242 ft 334 kts 186°
2026-05-07 22:05 -32.04218 -70.84271 23781 ft 334 kts 186°
2026-05-07 22:06 -32.06551 -70.84189 23248 ft 334 kts 186°
2026-05-07 22:06 -32.08866 -70.84105 22782 ft 332 kts 186°
2026-05-07 22:06 -32.11167 -70.84022 22325 ft 330 kts 186°
2026-05-07 22:06 -32.13450 -70.83940 21889 ft 327 kts 186°
2026-05-07 22:07 -32.15716 -70.83858 21463 ft 324 kts 185°
2026-05-07 22:07 -32.17961 -70.83778 21036 ft 322 kts 185°
2026-05-07 22:07 -32.20199 -70.83699 20601 ft 321 kts 185°
2026-05-07 22:07 -32.22423 -70.83620 20180 ft 319 kts 185°
2026-05-07 22:08 -32.24641 -70.83541 19746 ft 318 kts 185°
2026-05-07 22:08 -32.26845 -70.83462 19309 ft 317 kts 184°
2026-05-07 22:08 -32.29053 -70.83383 18880 ft 316 kts 184°
2026-05-07 22:08 -32.31238 -70.83305 18477 ft 314 kts 184°
2026-05-07 22:09 -32.33421 -70.83227 17979 ft 313 kts 184°
2026-05-07 22:09 -32.35589 -70.83148 17567 ft 311 kts 183°
2026-05-07 22:09 -32.37749 -70.83071 17143 ft 310 kts 182°
2026-05-07 22:09 -32.39894 -70.82994 16730 ft 307 kts 182°
2026-05-07 22:10 -32.42024 -70.82917 16325 ft 305 kts 182°
2026-05-07 22:10 -32.44140 -70.82841 15955 ft 304 kts 181°
2026-05-07 22:10 -32.46249 -70.82765 15528 ft 303 kts 181°
2026-05-07 22:10 -32.48348 -70.82689 15149 ft 302 kts 181°
2026-05-07 22:11 -32.49769 -70.82638 14860 ft 301 kts 181°
2026-05-07 22:11 -32.51851 -70.82564 14480 ft 298 kts 180°
2026-05-07 22:11 -32.53923 -70.82489 14100 ft 298 kts 180°
2026-05-07 22:11 -32.56002 -70.82413 13660 ft 299 kts 180°
2026-05-07 22:12 -32.58078 -70.82337 13252 ft 299 kts 179°
2026-05-07 22:12 -32.60170 -70.82263 12627 ft 304 kts 179°
2026-05-07 22:12 -32.62310 -70.82185 12026 ft 310 kts 179°
2026-05-07 22:12 -32.64461 -70.82108 11724 ft 305 kts 179°
2026-05-07 22:13 -32.66556 -70.82032 11543 ft 297 kts 179°
2026-05-07 22:13 -32.68593 -70.81958 11406 ft 287 kts 179°
2026-05-07 22:13 -32.70583 -70.81886 11288 ft 278 kts 179°
2026-05-07 22:13 -32.72483 -70.81817 11183 ft 269 kts 179°
2026-05-07 22:14 -32.74326 -70.81750 11072 ft 261 kts 179°
2026-05-07 22:14 -32.76122 -70.81684 10960 ft 254 kts 179°
2026-05-07 22:14 -32.77862 -70.81621 10775 ft 249 kts 179°
2026-05-07 22:14 -32.79573 -70.81560 10387 ft 254 kts 179°
2026-05-07 22:15 -32.81347 -70.81495 10089 ft 254 kts 178°
2026-05-07 22:15 -32.83111 -70.81432 9810 ft 254 kts 178°
2026-05-07 22:15 -32.84875 -70.81368 9523 ft 254 kts 178°
2026-05-07 22:15 -32.86639 -70.81303 9257 ft 252 kts 179°
2026-05-07 22:16 -32.88384 -70.81239 9013 ft 250 kts 179°
2026-05-07 22:16 -32.90120 -70.81176 8755 ft 249 kts 179°
2026-05-07 22:16 -32.91847 -70.81117 8518 ft 247 kts 180°
2026-05-07 22:16 -32.93546 -70.81271 8320 ft 243 kts 188°
2026-05-07 22:17 -32.95213 -70.81549 8070 ft 242 kts 188°
2026-05-07 22:17 -32.96996 -70.81844 7837 ft 234 kts 188°
2026-05-07 22:17 -32.98566 -70.82092 7584 ft 223 kts 188°
2026-05-07 22:17 -33.00068 -70.82324 7353 ft 212 kts 188°
2026-05-07 22:18 -33.01519 -70.82408 7151 ft 206 kts 179°
2026-05-07 22:18 -33.04262 -70.82237 6761 ft 192 kts 178°
2026-05-07 22:18 -33.05571 -70.82145 6538 ft 185 kts 178°
2026-05-07 22:19 -33.06833 -70.82063 6354 ft 178 kts 178°
2026-05-07 22:19 -33.08045 -70.81973 6194 ft 173 kts 178°
2026-05-07 22:19 -33.09220 -70.81894 6045 ft 164 kts 178°
2026-05-07 22:19 -33.10342 -70.81826 5842 ft 158 kts 178°
2026-05-07 22:20 -33.11443 -70.81763 5691 ft 159 kts 178°
2026-05-07 22:20 -33.12553 -70.81702 5512 ft 160 kts 178°
2026-05-07 22:20 -33.13669 -70.81641 5361 ft 160 kts 178°
2026-05-07 22:20 -33.14766 -70.81581 5280 ft 156 kts 178°
2026-05-07 22:21 -33.15839 -70.81523 5193 ft 154 kts 178°
2026-05-07 22:21 -33.16932 -70.81464 5138 ft 159 kts 178°
2026-05-07 22:21 -33.18041 -70.81405 5061 ft 159 kts 178°
2026-05-07 22:21 -33.19145 -70.81345 4927 ft 160 kts 178°
2026-05-07 22:22 -33.20248 -70.81285 4729 ft 157 kts 178°
2026-05-07 22:22 -33.21324 -70.81227 4711 ft 157 kts 178°
2026-05-07 22:22 -33.22430 -70.81168 4516 ft 158 kts 178°
2026-05-07 22:22 -33.23523 -70.81109 4301 ft 155 kts 178°
2026-05-07 22:23 -33.24596 -70.81051 4097 ft 154 kts 178°
2026-05-07 22:23 -33.25661 -70.80993 3899 ft 153 kts 178°
2026-05-07 22:23 -33.26725 -70.80936 3691 ft 152 kts 178°
2026-05-07 22:23 -33.27786 -70.80879 3490 ft 150 kts 179°
2026-05-07 22:24 -33.28838 -70.80822 3278 ft 151 kts 179°
2026-05-07 22:24 -33.29884 -70.80766 3056 ft 150 kts 178°
2026-05-07 22:24 -33.30915 -70.80711 2834 ft 146 kts 178°
2026-05-07 22:24 -33.31924 -70.80657 2623 ft 144 kts 177°
2026-05-07 22:25 -33.32923 -70.80600 2416 ft 144 kts 177°
2026-05-07 22:25 -33.33934 -70.80546 2216 ft 144 kts 178°
2026-05-07 22:25 -33.34918 -70.80494 2031 ft 143 kts 178°
2026-05-07 22:25 -33.35924 -70.80439 1845 ft 143 kts 179°
2026-05-07 22:26 -33.36928 -70.80387 1652 ft 146 kts 179°
2026-05-07 22:26 -33.37920 -70.80332 1576 ft 142 kts 179°
2026-05-07 22:26 -33.38785 -70.80290 1574 ft 96 kts 178°
2026-05-07 22:26 -33.39131 -70.80270 1572 ft 26 kts 175°
2026-05-07 22:27 -33.39302 -70.80216 1571 ft 25 kts 155°
2026-05-07 22:27 -33.39446 -70.80111 1566 ft 24 kts 148°
2026-05-07 22:27 -33.39525 -70.79995 1564 ft 17 kts 101°
2026-05-07 22:27 -33.39528 -70.79858 1564 ft 16 kts 86°
2026-05-07 22:28 -33.39525 -70.79752 1564 ft 10 kts 88°
2026-05-07 22:28 -33.39521 -70.79670 1564 ft 10 kts 86°
2026-05-07 22:28 -33.39517 -70.79589 1564 ft 10 kts 87°
2026-05-07 22:28 -33.39514 -70.79511 1563 ft 9 kts 87°
2026-05-07 22:29 -33.39511 -70.79436 1563 ft 9 kts 87°
2026-05-07 22:29 -33.39508 -70.79363 1563 ft 9 kts 87°
2026-05-07 22:29 -33.39510 -70.79313 1563 ft 5 kts 117°
2026-05-07 22:29 -33.39543 -70.79297 1563 ft 5 kts 173°
2026-05-07 22:30 -33.39574 -70.79295 1563 ft 2 kts 177°
2026-05-07 22:30 -33.39582 -70.79294 1563 ft 0 kts 177°
2026-05-07 22:30 -33.39585 -70.79294 1563 ft 0 kts 176°